Regional Weather Roundup
Issued by NWS

Home | Current Version | Previous Version | Text Only | Print | Product List | Glossary Off
Versions: 1 2 3 4 5 6 7 8 9 10 11 12 13 14 15 16 17 18 19 20 21 22 23 24 25 26 27 28 29 30 31 32 33 34 35 36 37 38 39 40 41 42 43 44 45 46 47 48 49 50

000
ASUS43 KIND 240109
RWRIN

WEATHER ROUNDUP FOR INDIANA
NATIONAL WEATHER SERVICE INDIANAPOLIS IN
900 PM EDT SAT MAY 23 2015

NOTE: "FAIR" INDICATES FEW OR NO CLOUDS BELOW 12,000 FEET WITH NO
SIGNIFICANT WEATHER AND/OR OBSTRUCTIONS TO VISIBILITY.

* - STATION DOES NOT REPORT WEATHER SUCH AS PRECIPITATION OR FOG.

+ - STATION NOT QUALITY CONTROLLED BY THE NATIONAL WEATHER SERVICE.
    USE DATA WITH CAUTION...ESPECIALLY DEWPOINT AND RELATIVE
    HUMIDITY OBSERVATIONS.

INZ001>003-010>013-019-020-240200-
NORTHWEST INDIANA

CITY           SKY/WX    TMP DP  RH WIND       PRES   REMARKS
GARY /AIRPORT/ PTCLDY    68  55  64 CALM      30.20S
KNOX *+        CLEAR     72  41  33 S6        30.21S
LA PORTE +     MOCLDY    75  42  30 SW6       30.22S
MICHIGAN CITY+ PTCLDY    68  45  42 CALM      30.22S
MONTICELLO +   PTCLDY    73  46  39 S5        30.22S
RENSSELAER +   PTCLDY    73  41  31 S8        30.22S
VALPARAISO     CLEAR     74  42  31 S5        30.22S

$$

LMZ046-743>745-240200-
SOUTHERN LAKE MICHIGAN

STATION/POSITION TIME  TEMP    WIND        PRES    WAVE
                       AIR SEA DIR/SP/G            HT
                 (UTC) (F)     (DEG/KT/KT) (MB)    (FT)
BURNS HARBOR     0100   62      90/  4/ 10 1023.4S
MICHIGAN CITY    0100           50/  5/  6   N/A
5NW MICH CITY    0100   58 53   80/  6/  6   N/A     1

$$

INZ004-005-014>016-021>024-240200-
NORTH CENTRAL INDIANA

CITY           SKY/WX    TMP DP  RH WIND       PRES   REMARKS
GOSHEN         PTCLDY    70  46  42 S5        30.23S
LOGANSPORT +   PTCLDY    72  34  25 S6        30.24S
PERU/GRISSOM   PTCLDY    71  47  42 S5        30.23R
ROCHESTER +    CLEAR     73  43  33 S3        30.24S
SOUTH BEND     CLOUDY    76  43  30 S5        30.22S
WARSAW +       CLEAR     72  46  40 CALM      30.24S

$$

INZ006>009-017-018-025>027-240200-
NORTHEAST INDIANA

CITY           SKY/WX    TMP DP  RH WIND       PRES   REMARKS
ANGOLA *+      CLEAR     66  54  63 CALM      30.25R
AUBURN +       CLEAR     66  48  52 CALM      30.25S
FORT WAYNE     PTCLDY    71  50  47 S6        30.25S
HUNTINGTON +   CLEAR     68  49  50 CALM      30.24S

$$

INZ028-029-035-036-043>045-051>053-240200-
WEST CENTRAL INDIANA

CITY           SKY/WX    TMP DP  RH WIND       PRES   REMARKS
CRAWFORDSVL +  CLEAR     68  37  31 SE3       30.24S
GREENCASTLE +  PTCLDY    68  43  40 CALM      30.24F
LAFAYETTE      CLEAR     72  44  36 S3        30.22S
TERRE HAUTE    MOCLDY    70  50  49 SE3       30.22F

$$

INZ030>032-037>040-046>048-054>057-064-065-240200-
CENTRAL INDIANA

CITY           SKY/WX    TMP DP  RH WIND       PRES   REMARKS
CP ATTERBURY + CLEAR     66  50  55 CALM      30.26R
COLUMBUS       CLEAR     70  43  37 SE5       30.26R
FRANKFORT +      N/A    N/A N/A N/A MISG        N/A
GREENWOOD *+   CLEAR     72  39  30 S5        30.26R
INDIANAPOLIS   MOCLDY    71  42  35 S9        30.24R
-EAGLE CREEK   CLEAR     72  45  37 S6        30.25R
KOKOMO *+      PTCLDY    70  46  43 S7        30.24S
MARION +       CLEAR     71  41  33 S6        30.25S
MT COMFORT *+  PTCLDY    72  23  16 CALM      30.26S
SHELBYVILLE    CLEAR     73  48  41 S7        30.25R
ZIONSVILLE +   PTCLDY    73  35  25 S5        30.26S

$$

INZ033-034-041-042-049-050-058-059-240200-
EAST CENTRAL INDIANA

CITY           SKY/WX    TMP DP  RH WIND       PRES   REMARKS
MUNCIE         CLEAR     74  43  32 S5        30.26R

$$

INZ060-061-067>069-081>083-085>088-240200-
SOUTHWEST INDIANA

CITY           SKY/WX    TMP DP  RH WIND       PRES   REMARKS
EVANSVILLE     MOCLDY    73  50  44 SE5       30.21F
HUNTINGBURG *+ PTCLDY    70  48  46 SE5       30.23F
WASHINGTON +   MOCLDY    69  49  48 CALM      30.21F

$$

INZ062-063-066-070>080-084-089>092-240200-
SOUTH CENTRAL AND SOUTHEAST INDIANA

CITY           SKY/WX    TMP DP  RH WIND       PRES   REMARKS
BLOOMINGTON    PTCLDY    68  51  54 CALM      30.25R
MADISON *+     CLEAR     72  34  25 E3        30.28S
NORTH VERNON + CLEAR     68  50  52 CALM      30.27
SEYMOUR +      CLEAR     73  48  40 SE3       30.25R

$$



USA.gov is the U.S. government's official web portal to all federal, state and local government web resources and services.